Content
SEND FEEDBACK

Daily
Averages
Monthly
Summary
United States of America

AGANA, GUAM


Home > North America > United States > Guam
Elevation: 74 meters     Latitude: 13 29N     Longitude: 144 48E

WEATHER
 
SELECT A DAY
Number of Records: 209,340;   Date Range: 1/1/95 - 9/20/14
 
SHARE

PRINT THIS DATA

[ ← Previous Day ]
WEATHER ALMANAC - 1 APRIL, 2013
[ Next Day → ]
[ °F ]   °C
Weather ElementAverageHighLow
Temperature28.3 °C31.7 °C (11:54 am)26 °C (7:36 pm)
Dewpoint23.7 °C25 °C (8:13 am)22.8 °C (1:54 am)
Humidity76.6 %89 % (7:36 pm)61 % (11:54 am)
Barometer1013.9 hPa1015.9 hPa (8:13 am)1012.2 hPa (2:54 pm)
Wind Speed22.7 km/h37 km/h (6:27 pm)
Wind Gust50.1 km/h (6:27 pm)
Weather ElementAverage
Visibility14.3 km
Wind DirectionENE (76.8 °)

Weather ElementTotal
Precipitation4.06 mm
Cooling Degree Days10.6 (Base 18.3)
Growing Degree Days18.9 (Base 10)
Averaged from 37 records on 1 April, 2013
WEATHER CONDITIONS BREAKOUT
WIND DIRECTION BREAKOUT
WEATHER BY HOUR - 1 APRIL, 2013
[ °F ]   °C
Local TimeTemperatureDewpointHumidityBarometerVisibilityWind DirectionWind SpeedGust SpeedPrecipitationEventsConditions
1:54 AM27.8 °C22.8 °C74 %1012.9 hPa16.1 kmEast (80°)16.7 km/hPartly Cloudy
2:54 AM27.8 °C22.8 °C74 %1012.5 hPa16.1 kmEast (80°)14.8 km/h0 mmClear
3:54 AM27.2 °C23.3 °C79 %1012.5 hPa16.1 kmEast (80°)14.8 km/h0 mmPartly Cloudy
4:54 AM27.2 °C22.8 °C77 %1012.9 hPa16.1 kmEast (80°)11.1 km/hClear
5:54 AM27.8 °C23.3 °C76 %1013.5 hPa16.1 kmEast (80°)16.7 km/hMostly Cloudy
6:54 AM27.2 °C23.9 °C82 %1014.2 hPa16.1 kmENE (70°)14.8 km/h0.76 mmClear
7:34 AM28 °C24 °C79 %1015.6 hPa16.1 kmEast (80°)14.8 km/hMostly Cloudy
7:45 AM28 °C24 °C79 %1015.6 hPa16.1 kmEast (80°)14.8 km/hMostly Cloudy
7:54 AM27.8 °C24.4 °C82 %1014.9 hPa16.1 kmENE (70°)13 km/hScattered Clouds
8:13 AM28 °C25 °C84 %1015.9 hPa16.1 kmENE (70°)18.5 km/hMostly Cloudy
8:33 AM29 °C24 °C74 %1015.9 hPa16.1 kmENE (60°)27.8 km/hScattered Clouds
8:54 AM29.4 °C23.9 °C72 %1015.2 hPa16.1 kmEast (90°)22.2 km/hClear
9:54 AM30.6 °C23.3 °C65 %1015.2 hPa16.1 kmENE (70°)27.8 km/hPartly Cloudy
10:54 AM31.1 °C23.9 °C65 %1014.6 hPa16.1 kmEast (80°)25.9 km/hScattered Clouds
11:54 AM31.7 °C23.3 °C61 %1013.9 hPa16.1 kmEast (80°)22.2 km/hScattered Clouds
12:38 PM31 °C23 °C62 %1014.2 hPa16.1 kmENE (70°)25.9 km/h40.7 km/hMostly Cloudy
12:54 PM31.7 °C23.3 °C61 %1012.9 hPa14.5 kmENE (70°)31.5 km/h48.1 km/hMostly Cloudy
1:54 PM30 °C23.9 °C70 %1012.5 hPa16.1 kmENE (60°)27.8 km/h44.4 km/h0 mmMostly Cloudy
2:54 PM31.1 °C22.8 °C61 %1012.2 hPa16.1 kmENE (60°)33.3 km/h46.3 km/hPartly Cloudy
3:37 PM31 °C24 °C66 %1012.9 hPa16.1 kmEast (80°)25.9 km/h38.9 km/hMostly Cloudy
3:54 PM29.4 °C24.4 °C74 %1012.2 hPa16.1 kmEast (80°)24.1 km/h0 mmMostly Cloudy
4:54 PM27.8 °C24.4 °C82 %1012.5 hPa12.9 kmEast (80°)31.5 km/h42.6 km/h0.25 mmRainLight Rain
5:54 PM28.3 °C23.9 °C77 %1012.5 hPa16.1 kmEast (80°)27.8 km/h35.2 km/h0 mmMostly Cloudy
6:27 PM27 °C24 °C84 %1013.9 hPa4.8 kmENE (60°)37 km/h50.1 km/h0 mmRainRain
6:31 PM27 °C24 °C84 %1013.9 hPa3.2 kmENE (70°)29.6 km/h50.1 km/h0.25 mmRainHeavy Rain
6:38 PM27 °C24 °C84 %1013.9 hPa6.4 kmEast (80°)25.9 km/h46.3 km/h0.51 mmRainLight Rain
6:54 PM26.7 °C23.9 °C85 %1012.9 hPa11.3 kmEast (80°)29.6 km/h40.7 km/h0.51 mmMostly Cloudy
7:27 PM27 °C24 °C84 %1014.2 hPa6.4 kmENE (70°)22.2 km/h40.7 km/h0.25 mmRainHeavy Rain
7:36 PM26 °C24 °C89 %1014.2 hPa11.3 kmENE (70°)24.1 km/h38.9 km/h0.51 mmRainLight Rain
7:54 PM26.1 °C22.8 °C82 %1013.9 hPa16.1 kmEast (80°)24.1 km/h0.51 mmMostly Cloudy
8:10 PM26 °C23 °C83 %1014.6 hPa6.4 kmEast (90°)18.5 km/h37 km/h0.25 mmRainLight Rain
8:54 PM27.2 °C24.4 °C85 %1013.9 hPa16.1 kmEast (80°)22.2 km/h0.25 mmOvercast
9:54 PM27.8 °C23.9 °C79 %1014.2 hPa16.1 kmEast (90°)24.1 km/h35.2 km/hMostly Cloudy
10:54 PM27.8 °C24.4 °C82 %1014.2 hPa16.1 kmEast (80°)18.5 km/hMostly Cloudy
11:05 PM28 °C24 °C79 %1014.9 hPa16.1 kmEast (80°)16.7 km/hOvercast
11:38 PM28 °C24 °C79 %1014.9 hPa16.1 kmEast (90°)22.2 km/h33.3 km/hPartly Cloudy
11:54 PM27.8 °C23.9 °C79 %1013.9 hPa16.1 kmEast (90°)22.2 km/h35.2 km/hPartly Cloudy
Hourly data recorded from PGUM, located 0 kilometers away from Agana, Guam







STORIES FROM OUR PARTNERS